Time,TemperatureF,DewpointF,PressureIn,WindDirection,WindDirectionDegrees,WindSpeedMPH,WindSpeedGustMPH,Humidity,HourlyPrecipIn,Conditions,Clouds,dailyrainin,SoftwareType,DateUTC
2013-01-12 00:02:00,75.0,64.0,29.89,NE,40,20.0,25.0,69,-99.99,,,-99.99,,2013-01-12 00:02:00,
2013-01-12 00:11:00,75.0,64.0,29.89,NE,50,18.0,24.0,69,0.00,,,-99.99,,2013-01-12 00:11:00,
2013-01-12 00:22:00,75.0,64.0,29.90,ENE,70,17.0,25.0,69,0.00,,,-99.99,,2013-01-12 00:22:00,
2013-01-12 00:32:00,75.0,66.0,29.89,NNE,20,18.0,27.0,73,0.00,,,-99.99,,2013-01-12 00:32:00,
2013-01-12 00:42:00,75.0,64.0,29.89,NE,40,16.0,27.0,69,0.00,,,-99.99,,2013-01-12 00:42:00,
2013-01-12 00:52:00,75.0,64.0,29.89,NNE,30,15.0,25.0,69,0.00,,,-99.99,,2013-01-12 00:52:00,
2013-01-12 01:02:00,75.0,64.0,29.89,NNE,30,15.0,25.0,69,-99.99,,,-99.99,,2013-01-12 01:02:00,
2013-01-12 01:12:00,75.0,64.0,29.89,NE,50,14.0,22.0,69,0.00,,,-99.99,,2013-01-12 01:12:00,
2013-01-12 01:22:00,75.0,64.0,29.89,NNE,30,14.0,22.0,69,0.00,,,-99.99,,2013-01-12 01:22:00,
2013-01-12 01:32:00,75.0,64.0,29.89,ENE,60,21.0,24.0,69,0.00,,,-99.99,,2013-01-12 01:32:00,
2013-01-12 01:42:00,75.0,64.0,29.89,NE,50,14.0,22.0,69,0.00,,,-99.99,,2013-01-12 01:42:00,
2013-01-12 01:52:00,75.0,64.0,29.89,ENE,60,22.0,28.0,69,0.00,,,-99.99,,2013-01-12 01:52:00,
2013-01-12 02:02:00,75.0,64.0,29.89,ENE,60,22.0,28.0,69,-99.99,,,-99.99,,2013-01-12 02:02:00,
2013-01-12 02:11:00,75.0,64.0,29.89,ENE,60,13.0,22.0,69,-99.99,,,-99.99,,2013-01-12 02:11:00,
2013-01-12 02:22:00,73.0,64.0,29.89,NE,40,16.0,22.0,73,-99.99,,,-99.99,,2013-01-12 02:22:00,
2013-01-12 02:32:00,73.0,64.0,29.89,NE,40,15.0,21.0,73,-99.99,,,-99.99,,2013-01-12 02:32:00,
2013-01-12 02:42:00,73.0,64.0,29.89,NE,50,14.0,21.0,73,-99.99,,,-99.99,,2013-01-12 02:42:00,
2013-01-12 02:52:00,73.0,64.0,29.89,ENE,70,21.0,22.0,73,-99.99,,,-99.99,,2013-01-12 02:52:00,
2013-01-12 03:02:00,73.0,64.0,29.89,ENE,70,21.0,22.0,73,-99.99,,,-99.99,,2013-01-12 03:02:00,
2013-01-12 03:11:00,73.0,64.0,29.89,East,80,15.0,-999.0,73,0.00,,,-99.99,,2013-01-12 03:11:00,
2013-01-12 03:22:00,73.0,64.0,29.90,ENE,70,18.0,22.0,73,0.00,,,-99.99,,2013-01-12 03:22:00,
2013-01-12 03:32:00,73.0,64.0,29.90,ENE,60,16.0,24.0,73,0.00,,,-99.99,,2013-01-12 03:32:00,
2013-01-12 03:42:00,73.0,64.0,29.90,East,80,12.0,-999.0,73,0.00,,,-99.99,,2013-01-12 03:42:00,
2013-01-12 03:52:00,72.0,64.0,29.90,NE,40,12.0,-999.0,78,0.00,,,-99.99,,2013-01-12 03:52:00,
2013-01-12 04:02:00,72.0,64.0,29.90,NE,40,12.0,-999.0,78,-99.99,,,-99.99,,2013-01-12 04:02:00,
2013-01-12 04:11:00,72.0,64.0,29.90,NNE,30,12.0,-999.0,78,0.00,,,-99.99,,2013-01-12 04:11:00,
2013-01-12 04:21:00,70.0,64.0,29.89,NE,40,17.0,-999.0,82,0.00,,,-99.99,,2013-01-12 04:21:00,
2013-01-12 04:32:00,70.0,64.0,29.89,ENE,60,13.0,24.0,82,0.00,,,-99.99,,2013-01-12 04:32:00,
2013-01-12 04:42:00,70.0,64.0,29.90,ENE,60,15.0,24.0,82,0.00,,,-99.99,,2013-01-12 04:42:00,
2013-01-12 04:52:00,70.0,64.0,29.90,East,100,12.0,21.0,82,-99.99,,,-99.99,,2013-01-12 04:52:00,
2013-01-12 05:03:00,70.0,64.0,29.90,East,100,12.0,21.0,82,-99.99,,,-99.99,,2013-01-12 05:03:00,
2013-01-12 05:12:00,72.0,63.0,29.90,East,80,5.0,-999.0,73,-99.99,,,-99.99,,2013-01-12 05:12:00,
2013-01-12 05:22:00,72.0,63.0,29.90,North,0,0.0,-999.0,73,-99.99,,,-99.99,,2013-01-12 05:22:00,
2013-01-12 05:32:00,70.0,61.0,29.90,East,90,6.0,-999.0,73,-99.99,,,-99.99,,2013-01-12 05:32:00,
2013-01-12 05:42:00,70.0,63.0,29.90,NE,50,9.0,-999.0,77,-99.99,,,-99.99,,2013-01-12 05:42:00,
2013-01-12 05:52:00,70.0,63.0,29.90,NE,40,10.0,-999.0,77,-99.99,,,-99.99,,2013-01-12 05:52:00,
2013-01-12 06:02:00,70.0,63.0,29.90,NE,40,10.0,-999.0,77,-99.99,,,-99.99,,2013-01-12 06:02:00,
2013-01-12 06:11:00,68.0,63.0,29.91,ENE,60,2.0,-999.0,82,-99.99,,,-99.99,,2013-01-12 06:11:00,
2013-01-12 06:22:00,68.0,63.0,29.92,ENE,70,8.0,-999.0,82,-99.99,,,-99.99,,2013-01-12 06:22:00,
2013-01-12 06:32:00,68.0,63.0,29.91,East,80,7.0,-999.0,82,-99.99,,,-99.99,,2013-01-12 06:32:00,
2013-01-12 06:42:00,68.0,63.0,29.92,East,100,3.0,-999.0,82,-99.99,,,-99.99,,2013-01-12 06:42:00,
2013-01-12 06:52:00,68.0,63.0,29.92,ESE,110,5.0,-999.0,82,-99.99,,,-99.99,,2013-01-12 06:52:00,
2013-01-12 07:02:00,68.0,63.0,29.92,ESE,110,5.0,-999.0,82,-99.99,,,-99.99,,2013-01-12 07:02:00,
2013-01-12 07:11:00,68.0,63.0,29.92,ESE,110,6.0,-999.0,82,-99.99,,,-99.99,,2013-01-12 07:11:00,
2013-01-12 07:21:00,68.0,61.0,29.91,ENE,70,6.0,-999.0,77,-99.99,,,-99.99,,2013-01-12 07:21:00,
2013-01-12 07:32:00,66.0,61.0,29.91,SE,130,3.0,-999.0,82,-99.99,,,-99.99,,2013-01-12 07:32:00,
2013-01-12 07:42:00,66.0,61.0,29.91,East,90,8.0,-999.0,82,-99.99,,,-99.99,,2013-01-12 07:42:00,
2013-01-12 07:52:00,68.0,61.0,29.92,East,80,10.0,-999.0,77,-99.99,,,-99.99,,2013-01-12 07:52:00,
2013-01-12 08:02:00,68.0,61.0,29.92,East,80,10.0,-999.0,77,-99.99,,,-99.99,,2013-01-12 08:02:00,
2013-01-12 08:11:00,68.0,63.0,29.91,East,100,12.0,-999.0,82,-99.99,,,-99.99,,2013-01-12 08:11:00,
2013-01-12 08:22:00,68.0,63.0,29.91,ESE,110,10.0,-999.0,82,-99.99,,,-99.99,,2013-01-12 08:22:00,
2013-01-12 08:32:00,68.0,63.0,29.91,East,90,7.0,-999.0,82,-99.99,,,-99.99,,2013-01-12 08:32:00,
2013-01-12 08:42:00,68.0,63.0,29.91,East,80,8.0,-999.0,82,-99.99,,,-99.99,,2013-01-12 08:42:00,
2013-01-12 08:52:00,68.0,63.0,29.92,East,80,6.0,-999.0,82,-99.99,,,-99.99,,2013-01-12 08:52:00,
2013-01-12 09:02:00,68.0,63.0,29.92,East,80,6.0,-999.0,82,-99.99,,,-99.99,,2013-01-12 09:02:00,
2013-01-12 09:11:00,68.0,63.0,29.92,NE,50,9.0,-999.0,82,-99.99,,,-99.99,,2013-01-12 09:11:00,
2013-01-12 09:22:00,68.0,63.0,29.91,ESE,110,8.0,-999.0,82,-99.99,,,-99.99,,2013-01-12 09:22:00,
2013-01-12 09:32:00,68.0,64.0,29.92,SE,130,8.0,-999.0,88,-99.99,,,-99.99,,2013-01-12 09:32:00,
2013-01-12 09:42:00,68.0,63.0,29.92,SE,130,7.0,-999.0,82,-99.99,,,-99.99,,2013-01-12 09:42:00,
2013-01-12 09:52:00,68.0,63.0,29.92,East,100,7.0,-999.0,82,-99.99,,,-99.99,,2013-01-12 09:52:00,
2013-01-12 10:02:00,68.0,63.0,29.92,East,100,7.0,-999.0,82,-99.99,,,-99.99,,2013-01-12 10:02:00,
2013-01-12 10:11:00,66.0,63.0,29.92,East,80,6.0,-999.0,88,-99.99,,,-99.99,,2013-01-12 10:11:00,
2013-01-12 10:22:00,68.0,63.0,29.92,ENE,70,8.0,-999.0,82,-99.99,,,-99.99,,2013-01-12 10:22:00,
2013-01-12 10:32:00,68.0,63.0,29.92,ENE,60,6.0,-999.0,82,-99.99,,,-99.99,,2013-01-12 10:32:00,
2013-01-12 10:42:00,68.0,64.0,29.92,ENE,70,8.0,-999.0,88,-99.99,,,-99.99,,2013-01-12 10:42:00,
2013-01-12 10:52:00,68.0,64.0,29.92,NE,50,18.0,-999.0,88,-99.99,,,-99.99,,2013-01-12 10:52:00,
2013-01-12 11:02:00,68.0,64.0,29.92,NE,50,18.0,-999.0,88,-99.99,,,-99.99,,2013-01-12 11:02:00,
2013-01-12 11:11:00,70.0,64.0,29.92,NE,50,10.0,-999.0,82,-99.99,,,-99.99,,2013-01-12 11:11:00,
2013-01-12 11:22:00,70.0,64.0,29.92,NE,40,12.0,-999.0,82,-99.99,,,-99.99,,2013-01-12 11:22:00,
2013-01-12 11:32:00,70.0,64.0,29.92,NE,50,9.0,-999.0,82,-99.99,,,-99.99,,2013-01-12 11:32:00,
2013-01-12 11:42:00,68.0,64.0,29.92,NE,50,9.0,-999.0,88,-99.99,,,-99.99,,2013-01-12 11:42:00,
2013-01-12 11:52:00,68.0,64.0,29.92,East,80,8.0,-999.0,88,-99.99,,,-99.99,,2013-01-12 11:52:00,
2013-01-12 12:02:00,68.0,64.0,29.92,East,80,8.0,-999.0,88,-99.99,,,-99.99,,2013-01-12 12:02:00,
2013-01-12 12:11:00,68.0,64.0,29.92,East,100,5.0,-999.0,88,-99.99,,,-99.99,,2013-01-12 12:11:00,
2013-01-12 12:22:00,68.0,64.0,29.92,ENE,60,9.0,-999.0,88,-99.99,,,-99.99,,2013-01-12 12:22:00,
2013-01-12 12:32:00,68.0,64.0,29.92,ENE,70,7.0,-999.0,88,-99.99,,,-99.99,,2013-01-12 12:32:00,
2013-01-12 12:42:00,68.0,64.0,29.92,ENE,70,7.0,-999.0,88,-99.99,,,-99.99,,2013-01-12 12:42:00,
2013-01-12 12:52:00,68.0,64.0,29.91,NNE,30,8.0,-999.0,88,-99.99,,,-99.99,,2013-01-12 12:52:00,
2013-01-12 13:02:00,68.0,64.0,29.91,NNE,30,8.0,-999.0,88,-99.99,,,-99.99,,2013-01-12 13:02:00,
2013-01-12 13:11:00,68.0,64.0,29.91,NE,40,14.0,-999.0,88,-99.99,,,-99.99,,2013-01-12 13:11:00,
2013-01-12 13:22:00,68.0,64.0,29.92,ESE,120,9.0,-999.0,88,-99.99,,,-99.99,,2013-01-12 13:22:00,
2013-01-12 13:32:00,68.0,64.0,29.92,East,90,6.0,-999.0,88,-99.99,,,-99.99,,2013-01-12 13:32:00,
2013-01-12 13:42:00,68.0,64.0,29.92,SSE,160,5.0,-999.0,88,-99.99,,,-99.99,,2013-01-12 13:42:00,
2013-01-12 13:52:00,70.0,64.0,29.92,North,0,0.0,-999.0,82,-99.99,,,-99.99,,2013-01-12 13:52:00,
2013-01-12 14:02:00,70.0,64.0,29.92,North,0,0.0,-999.0,82,-99.99,,,-99.99,,2013-01-12 14:02:00,
2013-01-12 14:11:00,70.0,64.0,29.92,NW,320,2.0,-999.0,82,-99.99,,,-99.99,,2013-01-12 14:11:00,
2013-01-12 14:22:00,68.0,64.0,29.92,North,0,0.0,-999.0,88,-99.99,,,-99.99,,2013-01-12 14:22:00,
2013-01-12 14:32:00,68.0,63.0,29.92,ENE,60,3.0,-999.0,82,-99.99,,,-99.99,,2013-01-12 14:32:00,
2013-01-12 14:42:00,68.0,63.0,29.92,NE,50,2.0,-999.0,82,-99.99,,,-99.99,,2013-01-12 14:42:00,
2013-01-12 14:53:00,72.0,64.0,29.92,North,0,0.0,-999.0,78,-99.99,,,-99.99,,2013-01-12 14:53:00,
2013-01-12 15:03:00,72.0,64.0,29.92,North,0,0.0,-999.0,78,-99.99,,,-99.99,,2013-01-12 15:03:00,
2013-01-12 15:11:00,72.0,64.0,29.92,North,0,0.0,-999.0,78,-99.99,,,-99.99,,2013-01-12 15:11:00,
2013-01-12 15:22:00,68.0,64.0,29.92,NE,50,5.0,-999.0,88,-99.99,,,-99.99,,2013-01-12 15:22:00,
2013-01-12 15:33:00,68.0,64.0,29.92,NNE,30,5.0,-999.0,88,-99.99,,,-99.99,,2013-01-12 15:33:00,
2013-01-12 15:42:00,68.0,64.0,29.92,NE,50,2.0,-999.0,88,-99.99,,,-99.99,,2013-01-12 15:42:00,
2013-01-12 15:52:00,68.0,64.0,29.93,East,100,2.0,-999.0,88,-99.99,,,-99.99,,2013-01-12 15:52:00,
2013-01-12 16:02:00,68.0,64.0,29.93,East,100,2.0,-999.0,88,-99.99,,,-99.99,,2013-01-12 16:02:00,
2013-01-12 16:12:00,68.0,64.0,29.93,North,0,0.0,-999.0,88,-99.99,,,-99.99,,2013-01-12 16:12:00,
2013-01-12 16:22:00,68.0,64.0,29.93,North,0,0.0,-999.0,88,-99.99,,,-99.99,,2013-01-12 16:22:00,
2013-01-12 16:32:00,68.0,64.0,29.94,North,0,0.0,-999.0,88,-99.99,,,-99.99,,2013-01-12 16:32:00,
2013-01-12 16:42:00,68.0,64.0,29.94,ESE,110,6.0,-999.0,88,-99.99,,,-99.99,,2013-01-12 16:42:00,
2013-01-12 16:52:00,68.0,64.0,29.94,SSE,150,7.0,-999.0,88,-99.99,,,-99.99,,2013-01-12 16:52:00,
2013-01-12 17:01:00,68.0,64.0,29.94,SSE,150,7.0,-999.0,88,-99.99,,,-99.99,,2013-01-12 17:01:00,
2013-01-12 17:12:00,68.0,64.0,29.94,SE,130,6.0,-999.0,88,-99.99,,,-99.99,,2013-01-12 17:12:00,
2013-01-12 17:22:00,66.0,64.0,29.95,East,80,6.0,-999.0,93,-99.99,,,-99.99,,2013-01-12 17:22:00,
2013-01-12 17:32:00,66.0,64.0,29.95,ENE,60,6.0,-999.0,93,-99.99,,,-99.99,,2013-01-12 17:32:00,
2013-01-12 17:42:00,68.0,64.0,29.95,ENE,70,5.0,-999.0,88,-99.99,,,-99.99,,2013-01-12 17:42:00,
2013-01-12 17:52:00,68.0,64.0,29.96,ENE,70,7.0,-999.0,88,-99.99,,,-99.99,,2013-01-12 17:52:00,
2013-01-12 18:02:00,68.0,64.0,29.96,ENE,70,7.0,-999.0,88,-99.99,,,-99.99,,2013-01-12 18:02:00,
2013-01-12 18:11:00,68.0,64.0,29.96,East,100,5.0,-999.0,88,-99.99,,,-99.99,,2013-01-12 18:11:00,
2013-01-12 18:22:00,68.0,64.0,29.96,SE,130,7.0,-999.0,88,-99.99,,,-99.99,,2013-01-12 18:22:00,
2013-01-12 18:32:00,70.0,64.0,29.97,SE,140,6.0,-999.0,82,-99.99,,,-99.99,,2013-01-12 18:32:00,
2013-01-12 18:42:00,70.0,66.0,29.97,SE,130,5.0,-999.0,88,-99.99,,,-99.99,,2013-01-12 18:42:00,
2013-01-12 18:52:00,72.0,66.0,29.98,East,100,3.0,-999.0,83,-99.99,,,-99.99,,2013-01-12 18:52:00,
2013-01-12 19:02:00,72.0,66.0,29.98,East,100,3.0,-999.0,83,-99.99,,,-99.99,,2013-01-12 19:02:00,
2013-01-12 19:11:00,72.0,66.0,29.98,North,0,0.0,-999.0,83,-99.99,,,-99.99,,2013-01-12 19:11:00,
2013-01-12 19:22:00,73.0,64.0,29.98,North,0,0.0,-999.0,73,-99.99,,,-99.99,,2013-01-12 19:22:00,
2013-01-12 19:32:00,73.0,64.0,29.99,North,0,0.0,-999.0,73,-99.99,,,-99.99,,2013-01-12 19:32:00,
2013-01-12 19:42:00,75.0,64.0,29.99,WNW,290,5.0,-999.0,69,-99.99,,,-99.99,,2013-01-12 19:42:00,
2013-01-12 19:52:00,75.0,64.0,29.99,North,0,0.0,-999.0,69,-99.99,,,-99.99,,2013-01-12 19:52:00,
2013-01-12 20:02:00,75.0,64.0,29.99,North,0,0.0,-999.0,69,-99.99,,,-99.99,,2013-01-12 20:02:00,
2013-01-12 20:11:00,75.0,64.0,29.98,North,0,0.0,-999.0,69,-99.99,,,-99.99,,2013-01-12 20:11:00,
2013-01-12 20:21:00,75.0,64.0,29.98,WSW,250,2.0,-999.0,69,-99.99,,,-99.99,,2013-01-12 20:21:00,
2013-01-12 20:32:00,75.0,64.0,29.97,West,260,6.0,-999.0,69,-99.99,,,-99.99,,2013-01-12 20:32:00,
2013-01-12 20:42:00,75.0,64.0,29.97,WSW,240,3.0,-999.0,69,-99.99,,,-99.99,,2013-01-12 20:42:00,
2013-01-12 20:52:00,77.0,64.0,29.97,West,260,5.0,-999.0,65,-99.99,,,-99.99,,2013-01-12 20:52:00,
2013-01-12 21:02:00,77.0,64.0,29.97,West,260,5.0,-999.0,65,-99.99,,,-99.99,,2013-01-12 21:02:00,
2013-01-12 21:11:00,75.0,66.0,29.96,West,270,5.0,-999.0,73,-99.99,,,-99.99,,2013-01-12 21:11:00,
2013-01-12 21:21:00,75.0,64.0,29.96,West,260,5.0,-999.0,69,-99.99,,,-99.99,,2013-01-12 21:21:00,
2013-01-12 21:32:00,75.0,64.0,29.95,North,0,0.0,-999.0,69,-99.99,,,-99.99,,2013-01-12 21:32:00,
2013-01-12 21:42:00,75.0,64.0,29.95,North,0,0.0,-999.0,69,-99.99,,,-99.99,,2013-01-12 21:42:00,
2013-01-12 21:52:00,75.0,64.0,29.94,North,0,0.0,-999.0,69,-99.99,,,-99.99,,2013-01-12 21:52:00,
2013-01-12 22:02:00,75.0,64.0,29.94,North,0,0.0,-999.0,69,-99.99,,,-99.99,,2013-01-12 22:02:00,
2013-01-12 22:11:00,77.0,64.0,29.94,North,0,0.0,-999.0,65,-99.99,,,-99.99,,2013-01-12 22:11:00,
2013-01-12 22:22:00,77.0,64.0,29.93,West,280,6.0,-999.0,65,-99.99,,,-99.99,,2013-01-12 22:22:00,
2013-01-12 22:32:00,77.0,64.0,29.93,West,270,5.0,-999.0,65,-99.99,,,-99.99,,2013-01-12 22:32:00,
2013-01-12 22:42:00,77.0,64.0,29.92,West,280,6.0,-999.0,65,-99.99,,,-99.99,,2013-01-12 22:42:00,
2013-01-12 22:52:00,77.0,66.0,29.92,WNW,290,6.0,-999.0,69,-99.99,,,-99.99,,2013-01-12 22:52:00,
2013-01-12 23:02:00,77.0,66.0,29.92,WNW,290,6.0,-999.0,69,-99.99,,,-99.99,,2013-01-12 23:02:00,
2013-01-12 23:11:00,77.0,64.0,29.91,West,280,6.0,-999.0,65,-99.99,,,-99.99,,2013-01-12 23:11:00,
2013-01-12 23:21:00,77.0,64.0,29.91,North,0,0.0,-999.0,65,-99.99,,,-99.99,,2013-01-12 23:21:00,
2013-01-12 23:32:00,79.0,64.0,29.91,SSW,210,7.0,-999.0,61,-99.99,,,-99.99,,2013-01-12 23:32:00,
2013-01-12 23:42:00,79.0,64.0,29.91,North,0,0.0,-999.0,61,-99.99,,,-99.99,,2013-01-12 23:42:00,
2013-01-12 23:52:00,81.0,64.0,29.91,NNW,330,6.0,-999.0,57,-99.99,,,-99.99,,2013-01-12 23:52:00,